Location: Skalnate Pleso
(49.1889°N, 20.2450°E)
Time: 07:13:02
(UTC+01:00)

Cosmos 2360 Rocket - Pass Details

Date: 19 November 2019
Orbit: 832 x 847 km, 71.0° (Epoch: 10 December)

Event Time Altitude Azimuth Distance (km) Brightness Sun altitude
Exits shadow 05:19:46 13° 325° (NW) 2,290 4.0 -15.3°
Maximum altitude 05:24:52 62° 247° (WSW) 953 2.2 -14.5°
Drops below altitude 10° 05:30:26 10° 168° (SSE) 2,462 5.0 -13.6°
Sets 05:32:53 0° 165° (SSE) 3,392 5.8 -13.2°
